#timestamp,LO_Frequency,Hit,StdDev 
1562497215.2,286047001.4,N
1562497235.0,286047003.9,N
1562497235.9,286047003.9,N
1562497255.8,286047003.1,N
1562497275.2,286046998.9,N
1562497295.0,286046997.2,N
1562497295.9,286046997.2,N
1562497315.8,286046997.6,N
1562497335.6,286046996.0,N
1562497355.5,286046994.4,N
1562497375.3,286046987.0,Y
1562497395.1,286046985.6,P
1562497415.9,286046987.0,N
1562497435.7,286046988.7,N
1562497455.6,286046988.9,N
1562497475.4,286046989.2,N
1562497495.2,286046988.5,N
1562497515.1,286046991.6,N
1562497516.0,286046991.6,N
1562497535.8,286046990.5,N
1562497555.7,286046994.8,N
1562497575.5,286046993.7,N
1562497595.3,286046992.6,N
1562497615.2,286046994.7,N
1562497635.0,286046993.2,N
1562497635.9,286046993.2,N
1562497655.7,286046993.4,N
1562497675.6,286046993.6,N
1562497695.4,286046996.3,N
1562497715.3,286047000.8,N
1562497735.1,286047001.3,N
1562497736.0,286047001.3,N
1562497755.8,286047001.9,N
1562497775.7,286047000.8,N
1562497795.5,286046995.4,N
1562497815.4,286046991.7,N
1562497835.2,286046990.7,N
1562497855.0,286046989.7,N
1562497855.9,286046989.7,N
1562497875.8,286046987.7,N
1562497895.6,286046985.6,Y
1562497915.5,286046990.2,P
1562497935.3,286046990.8,P
1562497955.1,286046988.5,P
1562497975.9,286046991.5,Y
1562497995.7,286046998.7,P
1562498015.5,286046997.6,N
1562498035.4,286046996.4,N
1562498055.2,286046994.8,N
1562498075.1,286046991.7,N
1562498076.0,286046991.7,N
1562498095.8,286046991.5,N
1562498115.6,286046989.5,Y
1562498135.5,286046994.6,P
1562498155.3,286046990.2,P
1562498175.2,286046993.2,P
1562498195.9,286046992.5,Y
1562498215.7,286046995.2,P
1562498235.6,286046993.7,P
1562498255.4,286046992.9,P
1562498275.3,286046990.1,Y
1562498295.1,286046999.1,P
1562498315.8,286046998.6,N
1562498335.7,286046997.8,N
1562498355.5,286046995.9,N
1562498375.4,286046996.3,N
1562498395.2,286046991.9,Y
1562498415.0,286046993.3,P
1562498415.9,286046993.3,P
1562498435.8,286046996.1,N
1562498455.6,286046993.4,Y
1562498475.5,286047000.7,P
1562498495.3,286047000.2,N
1562498515.1,286046999.9,N
1562498535.9,286046997.1,N
1562498555.7,286046995.7,N
1562498575.5,286047002.4,N
1562498595.4,286047003.8,N
1562498615.2,286047001.5,N
1562498635.1,286047004.3,N
1562498636.0,286047004.3,N
1562498655.8,286047004.4,N
1562498675.6,286047005.9,N
1562498695.5,286047003.2,N
1562498715.3,286047002.5,N
1562498735.2,286047000.6,N
1562498755.9,286047002.0,N
1562498775.7,286046999.3,N
1562498795.6,286046999.7,N
1562498815.4,286047008.4,N
1562498835.2,286047007.9,N
1562498855.1,286047005.1,N
1562498856.0,286047005.1,N
1562498875.8,286047002.3,N
1562498895.7,286047001.1,N
1562498915.5,286047003.3,N
1562498935.3,286047003.8,N
1562498955.2,286046999.1,N
1562498975.0,286046995.3,N
1562498975.9,286046995.3,N
1562498995.8,286046994.5,N
1562499015.6,286046991.0,N
1562499035.4,286046991.6,N
1562499055.3,286046989.3,N
1562499075.1,286046989.9,N
1562499095.8,286046987.8,N
1562499115.7,286046985.6,N
1562499135.5,286046983.9,N
1562499155.4,286046984.1,N
1562499175.2,286046985.9,N
1562499195.0,286046986.5,N
1562499195.9,286046986.5,N
1562499215.8,286046986.8,N
1562499235.6,286046984.9,N
1562499255.5,286046982.4,N
1562499275.3,286046980.5,N
1562499295.1,286046980.6,N
1562499315.9,286046981.7,N
1562499335.7,286046979.4,N
1562499355.6,286046980.1,N
1562499375.4,286046978.5,N
1562499395.2,286046977.9,N
1562499415.1,286046978.1,N
1562499416.0,286046978.1,N
1562499435.8,286046978.6,N
1562499455.6,286046978.6,N
1562499475.5,286046977.7,Y
1562499495.3,286046994.3,P
1562499515.2,286046991.7,N
1562499535.9,286046990.7,N
1562499555.7,286046989.1,Y
1562499575.6,286047000.7,P
1562499595.4,286046999.9,N
1562499615.3,286047001.0,N
1562499635.1,286047002.3,N
1562499636.0,286047002.3,N
1562499655.8,286047000.0,N
1562499675.7,286046998.7,N
1562499695.5,286046999.3,N
1562499715.4,286046999.4,N
1562499735.2,286046997.4,N
1562499755.0,286046995.5,N
1562499756.0,286046995.5,N
1562499775.8,286046996.2,N
1562499795.6,286046993.4,N
1562499815.5,286046995.5,N
1562499835.3,286046995.2,N
1562499855.1,286046996.3,N
1562499875.9,286046995.7,N
1562499895.7,286046996.2,N
1562499915.6,286046994.1,N
1562499935.4,286046995.6,N
1562499955.2,286046993.4,N
1562499975.1,286046993.7,N
1562499976.0,286046993.7,N
1562499995.8,286046996.4,N
1562500015.6,286046991.7,N
1562500035.5,286046994.3,N
1562500055.3,286046991.9,N
1562500075.4,286046993.2,N
1562500095.3,286046990.1,Y
1562500115.1,286046995.8,P
1562500135.8,286046995.7,P
1562500155.7,286046995.5,P
1562500175.5,286046995.7,Y
1562500195.4,286046998.7,P
1562500215.2,286046999.3,N
1562500235.0,286046998.4,N
1562500235.9,286046998.4,N
1562500255.8,286046998.3,N
1562500275.6,286046999.2,N
1562500295.5,286046997.2,N
1562500315.3,286046996.8,Y
1562500335.1,286047001.1,P
1562500355.9,286046999.3,N
1562500375.7,286046999.3,N
1562500395.5,286046997.8,N
1562500415.4,286046994.9,Y
1562500435.2,286046997.3,P
1562500455.1,286046997.1,P
1562500456.0,286046997.1,P
1562500475.8,286046997.8,N
1562500495.6,286046995.4,Y
1562500515.5,286046999.1,P
1562500535.3,286046999.0,N
1562500555.2,286046996.6,P
1562500575.9,286046996.6,Y
1562500595.7,286046998.5,P
1562500615.6,286046999.2,P
1562500635.4,286046995.3,P
1562500655.3,286046995.1,Y
1562500675.1,286046999.4,P
1562500676.0,286046999.4,N
1562500695.8,286046996.5,P
1562500715.7,286046996.6,N
1562500735.5,286046996.5,N
1562500755.3,286046996.5,N
1562500775.2,286046997.4,N
1562500795.0,286046997.2,N
1562500795.9,286046997.2,N
